www.pogodaiklimat.ru

Погода и климат >> Архив погоды >> Канада >> Британская Колумбия >> Принс-Джордж


ПОГОДА в Принс-Джордже

  • Прогноз погоды в Принс-Джордже
  • Монитор погоды в Принс-Джордже

АРХИВ ПОГОДЫ в Принс-Джордже

Время (UTC), дата Ветер
(напр.,м/с)
 
Видим.   Явления Облачность Т
(С)
Тd
(С)
f
(%)
Тe
(С)
Тes
(С)
Комфортность P
(гПа)
Po
(гПа)
Тmin
(С)
Tmax
(С)
R
(мм)
R24
(мм)
S
(см)
00 15.09 В 3 16 км 3/3 600 м
[]
+12.1 +9.2 82 +11 +12 1005.1 924.2 +10.3 +13.8 3
03 15.09 В 1 16 км 5/0 2000 м
[]
+8.8 +8.3 97 +8 +8 1005.0 923.9
06 15.09 ЮВ 4 16 км {осадки} 5/0
[]
+7.5 +6.3 92 +4 +4 1006.3 924.9 +7.0 +13.8 8 181
09 15.09 В 1 100 м туман {осадки} н/о +4.0 +3.9 99 +2 +2 1006.4 924.8
12 15.09 С 1 100 м туман н/о +4.1 +4.1 100 +2 +2 1006.1 924.5 +3.3 +13.8 0.3
15 15.09 В 2 <100 м туман {осадки} н/о +5.3 +5.3 100 +3 +3 1006.7 924.9
18 15.09 СЗ 3 14 км 10/10 50 м
[]
+8.3 +8.3 100 +5 +5 1006.2 924.6 +3.3 +8.4
21 15.09 С 3 16 км 9/9 300 м
[]
+12.1 +9.3 83 +10 +11 1005.8 924.3
00 16.09 СВ 2 16 км 3/0 2000 м
[]
+11.0 +8.9 87 +10 +12 1006.1 924.5 +3.3 +13.2 0.5
03 16.09 С 2 11 км {осадки} ясно +7.5 +7.4 99 +6 +6 1007.3 925.4
06 16.09 С 2 1000 м дымка 9/9 <50 м
[]
+4.8 +4.8 100 +2 +2 1008.0 926.1 +3.3 +13.2
09 16.09 Ю 2 300 м туман н/о +5.9 +5.9 100 +4 +4 1008.3 926.7
12 16.09 Ю 3 1000 м дымка н/о +6.9 +6.9 100 +4 +4 1008.5 926.9 +3.0 +13.2
15 16.09 Ю 2 1200 м дымка н/о +7.3 +7.3 100 +5 +5 1009.4 927.5
18 16.09 Ю 5 16 км {осадки} 9/9 200 м
[]
+10.2 +9.0 92 +7 +7 1009.0 927.1 +3.0 +10.2 0.3
21 16.09 Ю 6 16 км {осадки} 3/3 600 м
[]
+14.6 +7.6 63 +13 +15 1007.0 925.7
00 17.09 Ю 4 16 км 5/5 1500 м
[]
+14.5 +7.3 62 +13 +14 1006.2 925.1 +3.0 +15.5
03 17.09 С 1 16 км 9/0
[]
+10.6 +8.2 85 +10 +10 1006.2 924.8
06 17.09 С 3 16 км ясно +6.3 +6.1 99 +3 +3 1005.7 924.2 +3.0 +15.5 21
09 17.09 СЗ 2 16 км {осадки} 10/0
[]
+6.7 +6.6 99 +5 +5 1005.1 924.1
12 17.09 С 2 16 км {осадки} ясно +4.9 +4.6 98 +2 +2 1005.5 924.3 +4.3 +15.5 0.5
15 17.09 С 2 8000 м дымка 3/3 50 м
[]
+4.9 +4.9 100 +2 +2 1006.9 925.2
18 17.09 С 3 16 км ясно +12.5 +8.7 78 +11 +16 1006.7 925.3 +1.5 +12.7
21 17.09 Ю 3 16 км 9/9 1500 м
[]
+15.3 +6.2 55 +15 +15 1006.7 925.6
00 18.09 ЮВ 3 16 км слаб. дождь 10/10 1000 м
[]
+13.6 +7.6 67 +13 +13 1008.4 926.8 +1.5 +16.7
03 18.09 Ю 2 16 км {осадки} 9/0
[]
+10.4 +7.7 83 +9 +9 1010.0 928.1
06 18.09 СВ 2 9000 м дымка 10/10 50 м
[]
+9.1 +9.0 99 +7 +7 1010.7 929.2 +1.5 +16.7 0.3
09 18.09 С 2 16 км 10/10 1500 м
[]
+8.7 +8.4 98 +7 +7 1011.7 930.3
12 18.09 Ю 2 16 км 10/10 1000 м
[]
+8.4 +8.1 98 +7 +7 1012.9 931.2 +7.4 +16.7
15 18.09 З 1 16 км 10/10 1500 м
[]
+8.1 +7.8 98 +8 +8 1014.9 932.8
18 18.09 С 2 16 км 10/10 300 м
[]
+12.5 +9.3 81 +12 +12 1015.6 933.7 +6.3 +13.1
21 18.09 С 1 16 км 9/0 2000 м
[]
+14.1 +8.5 69 +15 +20 1015.4 933.6
00 19.09 СЗ 1 16 км 5/0 2000 м
[]
+16.6 +6.8 52 +18 +19 1015.3 933.7 +6.3 +16.8
03 19.09 Ю 2 16 км ясно +10.2 +7.3 82 +9 +9 1016.3 934.1
06 19.09 Ю 2 16 км ясно +6.7 +6.0 95 +4 +4 1016.7 934.5 +5.2 +16.8
09 19.09 Ю 4 16 км 9/0
[]
+7.4 +6.5 94 +4 +4 1015.7 933.8
12 19.09 Ю 5 16 км 10/0
[]
+8.0 +6.8 92 +4 +4 1014.7 933.1 +5.2 +16.8
15 19.09 Ю 5 16 км слаб. дождь 10/10 1500 м
[]
+8.4 +7.2 92 +5 +5 1015.2 933.1
18 19.09 Ю 7 16 км {осадки} 10/10 1000 м
[]
+9.2 +8.0 92 +5 +5 1015.4 933.1 +5.2 +9.4 0.8
21 19.09 Ю 8 16 км ясно +13.6 +9.4 76 +11 +12 1013.6 931.8
00 20.09 Ю 8 16 км 9/9 1000 м
[]
+13.5 +9.6 77 +11 +11 1012.1 930.5 +5.8 +15.4
03 20.09 ЮЗ 4 16 км {осадки} 9/9 1500 м
[]
+12.1 +10.0 87 +10 +10 1012.5 930.8
06 20.09 ЮЗ 3 16 км ясно +8.9 +8.1 95 +7 +7 1013.5 931.5 +5.8 +15.4 0.3 231
09 20.09 Ю 3 16 км 9/0
[]
+8.4 +6.8 90 +6 +6 1014.9 933.1
12 20.09 Ю 3 16 км 3/3 1500 м
[]
+6.1 +5.1 93 +3 +3 1016.2 934.1 +5.2 +15.4
15 20.09 Ю 3 16 км 3/3 1500 м
[]
+5.4 +4.7 95 +2 +2 1017.7 935.3
18 20.09 ЮЗ 3 16 км ясно +12.9 +6.5 65 +12 +17 1018.0 935.9 +3.0 +12.9
21 20.09 Ю 4 16 км 9/9 1000 м
[]
+15.1 +7.1 59 +14 +15 1017.6 935.7
00 21.09 Ю 4 16 км 9/0
[]
+15.4 +7.5 59 +14 +15 1017.0 935.0 +3.0 +16.8
03 21.09 Ю 3 16 км 9/0 2000 м
[]
+11.5 +7.3 75 +10 +10 1017.1 934.7
06 21.09 Ю 4 16 км 10/10 1000 м
[]
+11.1 +7.4 78 +9 +9 1016.4 934.6 +3.0 +16.8
09 21.09 Ю 4 16 км 10/10 1500 м
[]
+11.6 +7.0 73 +10 +10 1015.6 934.1
12 21.09 Ю 3 16 км 5/0
[]
+8.9 +6.0 82 +6 +6 1015.0 933.3 +8.9 +16.8
15 21.09 Ю 4 16 км 3/0
[]
+8.6 +6.4 86 +5 +5 1014.9 932.9
18 21.09 Ю 8 16 км ясно +15.2 +6.9 58 +13 +14 1012.8 931.5 +7.0 +15.5
21 21.09 Ю 4 16 км слаб. дождь ясно +15.6 +9.8 68 +15 +20 1010.9 929.9

 

Местоположение метеостанции Принс-Джордж (Британская Колумбия, Канада): широта 53.88 долгота -122.60 высота над уровнем моря 691 м.

В архиве по умолчанию представлена погода в Принс-Джордже за последнюю неделю. Архивные данные за месяц целиком и за предыдущие месяцы, начиная с января 2011 года, Вы можете получить, выбрав интересующий диапазон дат из раскрывающегося списка и нажав кнопку "Ввод!".


*Определитесь, кто Вы:
робот инопланетянин человек

Внимание! Время в таблицах - всемирное. Для получения местного времени необходимо прибавить поправку, которая равна -8 ч.

Смотрите также архив погоды в соседних городах и на ближайших метеорологических станциях:

Погода в Принс-Джордже (Британская Колумбия, Канада) (5 км)
Погода на Принц-Джордж Радаре (Британская Колумбия, Канада) (38 км)
Погода в Квеснеле (Британская Колумбия, Канада) (96 км)
Погода в Квеснеле (Британская Колумбия, Канада) (97 км)
Погода в Маккензи (Британская Колумбия, Канада) (161 км)
Погода в Уильямс Лейк (Британская Колумбия, Канада) (193 км)
Погода на Озере Скин (Британская Колумбия, Канада) (217 км)
Погода в Аэропорту Пунци Маунтин (Британская Колумбия, Канада) (220 км)
Погода в Бернс Лейк (Британская Колумбия, Канада) (222 км)
Погода в Вилне (Альберта, Канада) (235 км)

Пояснения к столбцам:

Ветер - указаны скорость ветра в м/с - средняя за 10 мин, порывы в срок и между сроками (в фигурных скобках) и направление, откуда дует ветер: С - северный, СВ - северо-восточный, В - восточный, ЮВ - юго-восточный, Ю - южный, ЮЗ - юго-западный, З - западный, СЗ - северо-западный.
Видимость - горизонтальная дальность видимости в метрах или километрах. При видимости от 1 до 10 км при отсутствии осадков обычно наблюдается дымка, при ухудшении видимости до 1 км и менее - туман. В сухую погоду видимость может ухудшаться дымом, пылью или мглою.
Явления - указаны атмосферные явления, наблюдавшиеся в срок или в последний час перед сроком; фигурными скобками обозначены явления, наблюдавшиеся между сроками (за 1-3 часа до срока); квадратными скобками обозначены град или гололедные отложения с указанием их диаметра в мм.
Облачность - указаны через наклонную черту общая и нижняя облачность в баллах и высота нижней границы облаков в метрах; квадратными скобками обозначены формы облаков: Ci - перистые, Cs - перисто-слоистые, Cc - перисто-кучевые, Ac - высококучевые, As - высокослоистые, Sc - слоисто-кучевые, Ns - слоисто-дождевые, Cu - кучевые, Cb - кучево-дождевые. Подробнее классификацию облаков см. в Атласе облаков (PDF).
T - Температура воздуха - температура, измеренная на высоте 2 м над землей.
Td - Температура точки росы - температура, при понижении до которой содержащийся в воздухе водяной пар достигнет насыщения.
f - Относительная влажность воздуха - влажноcть воздуха, измеренная на высоте 2 м над землей.
Te - Эффективная температура - температура, которую ощущает одетый по сезону человек в тени. Характеристика душности погоды. При расчете учитывается влияние влажности воздуха и скорости ветра на теплоощущения человека.
Tes - Эффективная температура на солнце - температура, которую ощущает человек, с поправкой на солнечный нагрев. Характеристика знойности погоды. Зависит от высоты солнца над горизонтом, облачности и скорости ветра. Ночью, в пасмурную погоду, а также при ветре 12 м/с и более поправка равна нулю.
P - Атмосферное давление - приведенное к уровню моря атмосферное давление.
Po - Атмосферное давление - измеренное на уровне метеостанции атмосферное давление.
Tmin - Минимальная температура - минимум температуры воздуха на высоте 2 м над землей.
Tmax - Максимальная температура - максимум температуры воздуха на высоте 2 м над землей.
R - Количество осадков - Количество выпавших осадков за период времени, мм. При наведении курсора мыши на число - период времени, за который выпало указанное количество осадков.
R24 - Количество осадков - Количество выпавших осадков за 24 часа, мм.
S - Снежный покров - Высота снежного покрова, см. При наведении курсора мыши на число - состояние снежного покрова и степень покрытия местности в баллах.